Find Starlink 38011

NORAD ID: 100412 Int'l Des: 2026-192 Owner: SPXS Country: US Constellation: starlink operational

当前视图

正在加载3D地球...

About Starlink 38011

Starlink 38011 (NORAD 100412) is a starlink constellation satellite launched Aug 21, 2026 by SPXS of US. with a mass of 575.00 kg.

即将过境

Passes for default location (London). Set your location on the main map for personalized predictions.

高度历史

Loading altitude history...

两行轨道根数

1 A0412U 26192J 26253.51956922 .00124163 00000-0 65332-3 0 9993
2 A0412 53.1593 354.3923 0000588 66.1470 293.9614 15.79855151 4352
Epoch: Sep 10, 2026 • Age: 34 hours

当前状态

高度 336.0 km
远地点 / 近地点 N/A
速度 7.71 km/s
星下点 53.09°N, 119.79°E
发射日期 Aug 21, 2026
运行时间 21 days
类型 internet

技术详情

分类 Payload
质量 575.00 kg
干质量 530.00 kg
总质量 575.00 kg
长度 0.30 m
直径 4.10 m
跨度 29.00 m
形状 Box + pan
制造商 SPXS
平台类型 Starlink V2MO
阶段状态 In Orbit
所有者/国家 SPXS/US

Most Searched